User: anonymous   Login
Location: Berduj
(43.0019°N, 22.3781°E)
Time: 19:56:47
(UTC+00:00)
Language:

Abrixas rocket - Orbit

View from above orbital plane
View from above orbital plane
View from above satellite
View from above satellite

Ground track
Ground track

The orbit data is extracted from the following two-line orbital elements,

1 25723U 99022C   19343.46893643  .00011297  00000-0  10052-3 0  9995
2 25723  48.4125 329.4072 0006153 121.7377 238.4174 15.68905562147946
Epoch (UTC): 09 December 2019 11:15:16
Eccentricity: 0.0006153
inclination: 48.4125°
perigee height: 358 km
apogee height: 366 km
right ascension of ascending node: 329.4072°
argument of perigee: 121.7377°
revolutions per day: 15.68905562
mean anomaly at epoch: 238.4174°
orbit number at epoch: 14794

The dashed part of the orbit path shows where the satellite is in the earth's shadow,  

DLR